Sioux City, IA

6:04 AM CDT on March 30, 2017 (GMT -0500)
Sioux Gateway

Weather History for KSUX - October, 2014

Change the Weather History Date:

Sunday, October 12, 2014

  Actual Average Record
Temperature  
Mean Temperature 52 °F 52 °F  
Max Temperature 68 °F 65 °F 92 °F (1975)
Min Temperature 36 °F 39 °F 19 °F (1917)
Degree Days  
Heating Degree Days 13 13  
Month to date heating degree days 154 133  
Since 1 July heating degree days 266 280  
Cooling Degree Days 0 0  
Month to date cooling degree days 4 8  
Year to date cooling degree days 862 869  
Growing Degree Days 2 (Base 50)    
Moisture  
Dew Point 43 °F    
Average Humidity 67    
Maximum Humidity 92    
Minimum Humidity 42    
Precipitation  
Precipitation 0.01 in 0.08 in 1.04 in (1890)
Month to date precipitation 0.54 1.01  
Year to date precipitation 38.96 24.51  
Snow  
Snow 0.00 in 0.00 in 0.80 in (2009)
Month to date snowfall 0.0 0.1  
Since 1 July snowfall 0.0 0.1  
Since 1 September snowfall 0.0 0.1  
Snow Depth 0.00 in    
Sea Level Pressure  
Sea Level Pressure 29.79 in    
Wind  
Wind Speed 10 mph (SSE)    
Max Wind Speed 21 mph    
Max Gust Speed 28 mph    
Visibility 10 miles    
Events Rain    
T = Trace of Precipitation, MM = Missing Value Source: NWS Daily Summary

Daily Weather History Graph

Daily Weather History Graph

Search for Another Location

Airport or City:

Trip Planner

Search our weather history database for the weather conditions in past years. The results will help you decide how hot, cold, wet, or windy it might be!

Date:

Astronomy

Oct. 12, 2014 Rise Set
Actual Time 7:34 AM CDT 6:48 PM CDT
Civil Twilight 7:06 AM CDT 7:16 PM CDT
Nautical Twilight 6:34 AM CDT 7:48 PM CDT
Astronomical Twilight 6:01 AM CDT 8:21 PM CDT
Moon 10:03 PM CDT (10/12) 12:01 PM CDT (10/12)
Length of Visible Light 12h 09m
Length of Day
11h 13m
Waning Gibbous, 79% of the Moon is Illuminated
Oct 12
Waning Gibbous
Oct 15
Last Quarter
Oct 23
New
Oct 30
First Quarter
Nov 6
Full

Hourly Weather History & Observations

Time (CDT) Temp. Windchill Dew Point Humidity Pressure Visibility Wind Dir Wind Speed Gust Speed Precip Events Conditions
12:52 AM 42.1 °F 38.4 °F 35.1 °F 76% 29.96 in 10.0 mi SSE 5.8 mph - N/A   Clear
1:52 AM 43.0 °F 39.5 °F 35.1 °F 74% 29.93 in 10.0 mi SSE 5.8 mph - N/A   Clear
2:52 AM 39.0 °F 34.8 °F 34.0 °F 82% 29.92 in 10.0 mi ESE 5.8 mph - N/A   Clear
3:52 AM 36.0 °F 29.6 °F 33.1 °F 89% 29.89 in 10.0 mi SE 8.1 mph - N/A   Clear
4:52 AM 39.9 °F 33.9 °F 36.0 °F 86% 29.87 in 10.0 mi SE 9.2 mph - N/A   Clear
5:52 AM 41.0 °F 35.8 °F 37.0 °F 86% 29.85 in 10.0 mi SE 8.1 mph - N/A   Clear
6:52 AM 42.1 °F 37.7 °F 37.9 °F 85% 29.83 in 10.0 mi SE 6.9 mph - N/A   Clear
7:52 AM 42.1 °F 37.7 °F 39.0 °F 89% 29.82 in 10.0 mi SE 6.9 mph - N/A   Clear
8:52 AM 46.0 °F 41.0 °F 41.0 °F 83% 29.81 in 10.0 mi SSE 10.4 mph - N/A   Clear
9:52 AM 51.1 °F - 43.0 °F 74% 29.81 in 10.0 mi SSE 9.2 mph - N/A   Clear
10:52 AM 55.9 °F - 44.1 °F 64% 29.78 in 10.0 mi SSE 11.5 mph - N/A   Clear
11:52 AM 60.1 °F - 43.0 °F 53% 29.76 in 10.0 mi South 15.0 mph 24.2 mph N/A   Clear
12:52 PM 63.0 °F - 42.1 °F 46% 29.73 in 10.0 mi South 17.3 mph 26.5 mph N/A   Clear
1:52 PM 64.9 °F - 42.1 °F 43% 29.69 in 10.0 mi South 16.1 mph 23.0 mph N/A   Clear
2:52 PM 66.0 °F - 43.0 °F 43% 29.67 in 10.0 mi SSE 13.8 mph 25.3 mph N/A   Clear
3:52 PM 66.9 °F - 45.0 °F 45% 29.66 in 10.0 mi South 15.0 mph 25.3 mph 0.00 in Rain Light Rain
4:52 PM 63.0 °F - 46.9 °F 56% 29.68 in 10.0 mi SSE 11.5 mph - 0.00 in Rain Light Rain
5:52 PM 60.1 °F - 48.0 °F 64% 29.70 in 10.0 mi SSE 11.5 mph 19.6 mph 0.00 in Rain Light Rain
6:52 PM 57.9 °F - 48.0 °F 70% 29.72 in 10.0 mi South 8.1 mph - 0.00 in   Clear
7:52 PM 57.9 °F - 48.9 °F 72% 29.74 in 10.0 mi SSE 9.2 mph - N/A   Overcast
8:52 PM 55.9 °F - 50.0 °F 80% 29.75 in 10.0 mi SSE 6.9 mph - 0.00 in Rain Light Rain
9:35 PM 55.9 °F - 50.0 °F 80% 29.75 in 10.0 mi SSE 5.8 mph - 0.00 in   Overcast
9:52 PM 55.9 °F - 50.0 °F 80% 29.76 in 10.0 mi South 5.8 mph - 0.00 in   Overcast
10:23 PM 55.0 °F - 50.0 °F 83% 29.77 in 10.0 mi South 8.1 mph - N/A   Overcast
10:52 PM 55.0 °F - 50.0 °F 83% 29.77 in 10.0 mi South 6.9 mph - 0.00 in Rain Light Rain
11:21 PM 54.0 °F - 51.1 °F 90% 29.78 in 10.0 mi SSE 6.9 mph - 0.00 in   Overcast
11:52 PM 54.0 °F - 51.1 °F 90% 29.78 in 10.0 mi SSE 4.6 mph - 0.00 in   Overcast